Location: STAR School
(35.3054°N, 111.2976°W)
Time: 23:06:43
(UTC-07:00)

N. Korean satellite - Pass Details

Date: 27 October 2019
Orbit: 456 x 506 km, 97.2° (Epoch: 18 November)

Event Time Altitude Azimuth Distance (km) Brightness Sun altitude
Rises 05:50:38 0° 20° (NNE) 2,584 10.4 -11.1°
Reaches altitude 10° 05:52:48 10° 28° (NNE) 1,703 9.6 -10.6°
Maximum altitude 05:56:15 38° 98° (E) 774 8.3 -9.9°
Drops below altitude 10° 05:59:42 10° 168° (SSE) 1,705 9.6 -9.2°
Sets 06:01:53 0° 176° (S) 2,587 10.4 -8.8°
